TimeMST,TemperatureF,Dew PointF,Humidity,Sea Level PressureIn,VisibilityMPH,Wind Direction,Wind SpeedMPH,Gust SpeedMPH,PrecipitationIn,Events,Conditions,WindDirDegrees,DateUTC
12:51 AM,89.1,61.0,39,29.84,10.0,West,19.6,24.2,N/A,,Mostly Cloudy,270,2013-09-07 07:51:00
1:51 AM,87.1,61.0,41,29.85,10.0,West,13.8,-,N/A,,Mostly Cloudy,260,2013-09-07 08:51:00
2:51 AM,86.0,62.1,44,29.84,10.0,SSW,5.8,-,N/A,,Mostly Cloudy,200,2013-09-07 09:51:00
3:51 AM,86.0,61.0,43,29.85,10.0,South,5.8,-,N/A,,Mostly Cloudy,180,2013-09-07 10:51:00
4:51 AM,84.0,64.0,51,29.84,10.0,SSE,9.2,-,N/A,,Mostly Cloudy,160,2013-09-07 11:51:00
5:51 AM,84.0,62.1,47,29.86,10.0,SSE,8.1,-,N/A,,Mostly Cloudy,150,2013-09-07 12:51:00
6:51 AM,82.9,62.1,49,29.88,10.0,SE,9.2,-,N/A,,Overcast,140,2013-09-07 13:51:00
7:51 AM,82.9,63.0,51,29.88,10.0,East,9.2,-,0.00,,Overcast,100,2013-09-07 14:51:00
8:51 AM,84.0,64.0,51,29.89,10.0,East,5.8,-,N/A,,Overcast,80,2013-09-07 15:51:00
9:51 AM,84.9,64.9,51,29.89,10.0,East,9.2,-,N/A,,Overcast,90,2013-09-07 16:51:00
10:51 AM,86.0,63.0,46,29.88,10.0,Calm,Calm,-,N/A,,Overcast,0,2013-09-07 17:51:00
11:51 AM,88.0,62.1,42,29.87,10.0,Calm,Calm,-,N/A,,Mostly Cloudy,0,2013-09-07 18:51:00
12:51 PM,88.0,61.0,40,29.86,10.0,West,3.5,-,N/A,,Mostly Cloudy,270,2013-09-07 19:51:00
1:51 PM,89.1,61.0,39,29.83,10.0,WNW,4.6,-,N/A,,Mostly Cloudy,290,2013-09-07 20:51:00
2:51 PM,91.9,59.0,33,29.81,10.0,WSW,5.8,-,N/A,,Mostly Cloudy,250,2013-09-07 21:51:00
3:51 PM,91.9,57.9,32,29.78,10.0,North,5.8,-,N/A,,Mostly Cloudy,10,2013-09-07 22:51:00
4:51 PM,93.0,57.9,31,29.76,10.0,NNW,9.2,-,N/A,,Scattered Clouds,330,2013-09-07 23:51:00
5:51 PM,93.0,59.0,32,29.75,10.0,NNW,12.7,-,N/A,,Scattered Clouds,340,2013-09-08 00:51:00
6:51 PM,91.9,57.0,31,29.77,10.0,NW,8.1,-,N/A,,Scattered Clouds,320,2013-09-08 01:51:00
7:51 PM,91.9,57.9,32,29.77,10.0,NW,6.9,-,N/A,,Mostly Cloudy,310,2013-09-08 02:51:00
8:51 PM,91.9,57.9,32,29.79,10.0,WNW,8.1,-,N/A,,Mostly Cloudy,300,2013-09-08 03:51:00
9:51 PM,91.0,59.0,34,29.79,10.0,WNW,6.9,-,N/A,,Mostly Cloudy,290,2013-09-08 04:51:00
10:51 PM,89.1,63.0,42,29.79,10.0,SSW,3.5,-,N/A,,Overcast,210,2013-09-08 05:51:00
11:51 PM,89.1,62.1,40,29.78,10.0,Calm,Calm,-,N/A,,Overcast,0,2013-09-08 06:51:00